Time,TemperatureF,DewpointF,PressureIn,WindDirection,WindDirectionDegrees,WindSpeedMPH,WindSpeedGustMPH,Humidity,HourlyPrecipIn,Conditions,Clouds,dailyrainin,SoftwareType,DateUTC
2013-03-12 00:00:00,45.0,43.9,30.22,SSW,192,0.0,0.0,96,0.00,,,0.00,Wunderground v.1.15,2013-03-12 07:00:00,
2013-03-12 00:10:00,45.0,43.9,30.21,SSW,192,0.0,0.0,96,0.00,,,0.00,Wunderground v.1.15,2013-03-12 07:10:00,
2013-03-12 00:20:00,45.0,43.9,30.21,SSW,192,0.0,0.0,96,0.00,,,0.00,Wunderground v.1.15,2013-03-12 07:20:00,
2013-03-12 00:30:00,45.0,43.9,30.20,SSW,192,0.0,0.0,96,0.00,,,0.00,Wunderground v.1.15,2013-03-12 07:30:00,
2013-03-12 00:40:00,45.0,43.9,30.19,SSW,192,0.0,0.0,96,0.00,,,0.00,Wunderground v.1.15,2013-03-12 07:40:00,
2013-03-12 00:50:00,45.0,43.9,30.20,SSW,192,0.0,0.0,96,0.00,,,0.00,Wunderground v.1.15,2013-03-12 07:50:00,
2013-03-12 01:00:00,45.0,43.9,30.20,SSW,192,0.0,0.0,96,0.00,,,0.00,Wunderground v.1.15,2013-03-12 08:00:00,
2013-03-12 01:10:00,45.0,43.9,30.19,SSW,192,0.0,0.0,96,0.00,,,0.00,Wunderground v.1.15,2013-03-12 08:10:00,
2013-03-12 01:20:00,45.0,43.9,30.19,SSW,192,0.0,0.0,96,0.00,,,0.00,Wunderground v.1.15,2013-03-12 08:20:00,
2013-03-12 01:30:00,45.0,43.9,30.19,SSW,192,0.0,0.0,96,0.00,,,0.00,Wunderground v.1.15,2013-03-12 08:30:00,
2013-03-12 01:40:00,45.0,43.9,30.18,SSW,192,0.0,0.0,96,0.00,,,0.00,Wunderground v.1.15,2013-03-12 08:40:00,
2013-03-12 01:50:00,45.3,44.5,30.18,South,175,0.0,0.0,97,0.00,,,0.00,Wunderground v.1.15,2013-03-12 08:50:00,
2013-03-12 02:00:00,45.8,45.0,30.18,South,186,1.0,1.0,97,0.00,,,0.00,Wunderground v.1.15,2013-03-12 09:00:00,
2013-03-12 02:10:00,46.3,45.5,30.18,SSW,211,0.0,0.0,97,0.00,,,0.00,Wunderground v.1.15,2013-03-12 09:10:00,
2013-03-12 02:20:00,46.8,46.0,30.18,South,174,1.0,1.0,97,0.00,,,0.00,Wunderground v.1.15,2013-03-12 09:20:00,
2013-03-12 02:30:00,47.3,46.5,30.19,SSE,163,1.0,1.0,97,0.00,,,0.00,Wunderground v.1.15,2013-03-12 09:30:00,
2013-03-12 02:40:00,47.9,47.4,30.18,South,182,3.0,3.0,98,0.00,,,0.00,Wunderground v.1.15,2013-03-12 09:40:00,
2013-03-12 02:50:00,48.2,47.7,30.18,SSE,148,2.0,2.0,98,0.00,,,0.00,Wunderground v.1.15,2013-03-12 09:50:00,
2013-03-12 03:00:00,48.4,47.6,30.18,South,174,1.0,2.0,97,0.00,,,0.00,Wunderground v.1.15,2013-03-12 10:00:00,
2013-03-12 03:10:00,48.5,47.7,30.17,SSE,165,2.0,2.0,97,0.00,,,0.00,Wunderground v.1.15,2013-03-12 10:10:00,
2013-03-12 03:20:00,48.6,47.8,30.17,South,189,2.0,2.0,97,0.00,,,0.00,Wunderground v.1.15,2013-03-12 10:20:00,
2013-03-12 03:30:00,48.7,47.9,30.17,ESE,105,2.0,2.0,97,0.00,,,0.00,Wunderground v.1.15,2013-03-12 10:30:00,
2013-03-12 03:40:00,48.8,48.0,30.17,South,172,3.0,3.0,97,0.00,,,0.00,Wunderground v.1.15,2013-03-12 10:40:00,
2013-03-12 03:50:00,49.0,48.2,30.17,South,179,2.0,2.0,97,0.00,,,0.00,Wunderground v.1.15,2013-03-12 10:50:00,
2013-03-12 04:00:00,49.2,48.1,30.17,South,175,2.0,2.0,96,0.00,,,0.00,Wunderground v.1.15,2013-03-12 11:00:00,
2013-03-12 04:10:00,49.2,48.1,30.16,South,191,2.0,2.0,96,0.00,,,0.00,Wunderground v.1.15,2013-03-12 11:10:00,
2013-03-12 04:20:00,49.4,48.0,30.16,South,190,3.0,3.0,95,0.00,,,0.00,Wunderground v.1.15,2013-03-12 11:20:00,
2013-03-12 04:30:00,49.5,48.1,30.16,SE,146,2.0,2.0,95,0.00,,,0.00,Wunderground v.1.15,2013-03-12 11:30:00,
2013-03-12 04:40:00,49.6,47.9,30.16,SSE,164,1.0,4.0,94,0.00,,,0.00,Wunderground v.1.15,2013-03-12 11:40:00,
2013-03-12 04:50:00,49.7,48.0,30.15,South,177,2.0,2.0,94,0.00,,,0.00,Wunderground v.1.15,2013-03-12 11:50:00,
2013-03-12 05:00:00,49.7,47.8,30.15,South,180,2.0,2.0,93,0.00,,,0.00,Wunderground v.1.15,2013-03-12 12:00:00,
2013-03-12 05:10:00,49.8,47.9,30.15,SSE,155,2.0,4.0,93,0.00,,,0.00,Wunderground v.1.15,2013-03-12 12:10:00,
2013-03-12 05:20:00,50.0,48.1,30.15,SSE,154,3.0,5.0,93,0.00,,,0.00,Wunderground v.1.15,2013-03-12 12:20:00,
2013-03-12 05:30:00,50.2,48.0,30.15,South,186,3.0,3.0,92,0.00,,,0.00,Wunderground v.1.15,2013-03-12 12:30:00,
2013-03-12 05:40:00,50.3,48.1,30.15,SW,232,2.0,2.0,92,0.00,,,0.00,Wunderground v.1.15,2013-03-12 12:40:00,
2013-03-12 05:50:00,50.3,48.1,30.15,SSW,206,2.0,2.0,92,0.00,,,0.00,Wunderground v.1.15,2013-03-12 12:50:00,
2013-03-12 06:00:00,50.4,48.2,30.15,ESE,104,1.0,1.0,92,0.00,,,0.00,Wunderground v.1.15,2013-03-12 13:00:00,
2013-03-12 06:10:00,50.4,48.2,30.15,SW,215,1.0,1.0,92,0.00,,,0.00,Wunderground v.1.15,2013-03-12 13:10:00,
2013-03-12 06:20:00,50.4,48.2,30.14,West,261,2.0,5.0,92,0.00,,,0.00,Wunderground v.1.15,2013-03-12 13:20:00,
2013-03-12 06:30:00,50.4,48.2,30.14,SSE,165,2.0,2.0,92,0.00,,,0.00,Wunderground v.1.15,2013-03-12 13:30:00,
2013-03-12 06:40:00,50.4,48.2,30.14,South,171,1.0,6.0,92,0.00,,,0.00,Wunderground v.1.15,2013-03-12 13:40:00,
2013-03-12 06:50:00,50.4,48.2,30.14,South,185,2.0,2.0,92,0.00,,,0.00,Wunderground v.1.15,2013-03-12 13:50:00,
2013-03-12 07:00:00,50.4,47.9,30.14,SSW,194,1.0,4.0,91,0.00,,,0.00,Wunderground v.1.15,2013-03-12 14:00:00,
2013-03-12 07:10:00,50.4,47.9,30.13,South,177,1.0,1.0,91,0.00,,,0.00,Wunderground v.1.15,2013-03-12 14:10:00,
2013-03-12 07:20:00,50.4,47.9,30.13,South,185,1.0,1.0,91,0.00,,,0.00,Wunderground v.1.15,2013-03-12 14:20:00,
2013-03-12 07:30:00,50.4,47.9,30.13,SSE,168,1.0,1.0,91,0.00,,,0.00,Wunderground v.1.15,2013-03-12 14:30:00,
2013-03-12 07:40:00,50.5,48.0,30.13,SW,218,1.0,1.0,91,0.00,,,0.00,Wunderground v.1.15,2013-03-12 14:40:00,
2013-03-12 07:50:00,50.5,48.0,30.13,SSE,159,1.0,1.0,91,0.00,,,0.00,Wunderground v.1.15,2013-03-12 14:50:00,
2013-03-12 08:00:00,50.6,48.1,30.13,South,173,1.0,1.0,91,0.00,,,0.00,Wunderground v.1.15,2013-03-12 15:00:00,
2013-03-12 08:10:00,50.6,47.8,30.14,South,174,1.0,1.0,90,0.00,,,0.00,Wunderground v.1.15,2013-03-12 15:10:00,
2013-03-12 08:20:00,50.7,47.9,30.14,SSE,162,1.0,1.0,90,0.00,,,0.00,Wunderground v.1.15,2013-03-12 15:20:00,
2013-03-12 08:30:00,50.8,48.0,30.14,SSE,157,1.0,5.0,90,0.00,,,0.00,Wunderground v.1.15,2013-03-12 15:30:00,
2013-03-12 08:40:00,50.8,48.0,30.14,WNW,290,1.0,1.0,90,0.00,,,0.00,Wunderground v.1.15,2013-03-12 15:40:00,
2013-03-12 08:50:00,50.9,47.8,30.14,South,181,1.0,2.0,89,0.00,,,0.00,Wunderground v.1.15,2013-03-12 15:50:00,
2013-03-12 09:00:00,51.0,47.9,30.14,SSE,162,2.0,2.0,89,0.00,,,0.00,Wunderground v.1.15,2013-03-12 16:00:00,
2013-03-12 09:10:00,51.1,47.7,30.14,South,190,2.0,2.0,88,0.00,,,0.00,Wunderground v.1.15,2013-03-12 16:10:00,
2013-03-12 09:20:00,51.2,47.8,30.15,SSE,165,1.0,1.0,88,0.00,,,0.00,Wunderground v.1.15,2013-03-12 16:20:00,
2013-03-12 09:30:00,51.3,47.9,30.14,SE,124,2.0,6.0,88,0.00,,,0.00,Wunderground v.1.15,2013-03-12 16:30:00,
2013-03-12 09:40:00,51.4,47.7,30.14,SSE,156,2.0,2.0,87,0.00,,,0.00,Wunderground v.1.15,2013-03-12 16:40:00,
2013-03-12 09:50:00,51.5,47.8,30.13,SSE,159,2.0,4.0,87,0.00,,,0.00,Wunderground v.1.15,2013-03-12 16:50:00,
2013-03-12 10:00:00,51.5,47.8,30.13,SSW,202,3.0,3.0,87,0.00,,,0.00,Wunderground v.1.15,2013-03-12 17:00:00,
2013-03-12 10:10:00,51.5,47.8,30.14,SE,125,2.0,5.0,87,0.00,,,0.00,Wunderground v.1.15,2013-03-12 17:10:00,
2013-03-12 10:20:00,51.5,47.5,30.14,SSE,161,3.0,4.0,86,0.00,,,0.00,Wunderground v.1.15,2013-03-12 17:20:00,
2013-03-12 10:30:00,51.6,47.5,30.14,South,169,3.0,3.0,86,0.00,,,0.00,Wunderground v.1.15,2013-03-12 17:30:00,
2013-03-12 10:40:00,51.7,47.6,30.14,SSE,162,2.0,2.0,86,0.00,,,0.00,Wunderground v.1.15,2013-03-12 17:40:00,
2013-03-12 10:50:00,51.7,47.6,30.14,SSE,163,2.0,2.0,86,0.00,,,0.00,Wunderground v.1.15,2013-03-12 17:50:00,
2013-03-12 11:00:00,51.8,47.7,30.14,SSW,208,2.0,4.0,86,0.00,,,0.00,Wunderground v.1.15,2013-03-12 18:00:00,
2013-03-12 11:10:00,51.9,47.5,30.15,ESE,114,3.0,3.0,85,0.00,,,0.00,Wunderground v.1.15,2013-03-12 18:10:00,
2013-03-12 11:20:00,52.0,47.9,30.14,South,180,1.0,1.0,86,0.00,,,0.00,Wunderground v.1.15,2013-03-12 18:20:00,
2013-03-12 11:30:00,52.0,47.6,30.14,South,183,2.0,3.0,85,0.00,,,0.00,Wunderground v.1.15,2013-03-12 18:30:00,
2013-03-12 11:40:00,52.2,47.5,30.14,South,180,2.0,2.0,84,0.00,,,0.00,Wunderground v.1.15,2013-03-12 18:40:00,
2013-03-12 11:50:00,52.3,47.3,30.14,South,180,3.0,6.0,83,0.00,,,0.00,Wunderground v.1.15,2013-03-12 18:50:00,
2013-03-12 12:00:00,52.4,47.4,30.15,SSE,165,1.0,1.0,83,0.00,,,0.00,Wunderground v.1.15,2013-03-12 19:00:00,
2013-03-12 12:10:00,52.5,47.2,30.14,SSE,163,2.0,7.0,82,0.00,,,0.00,Wunderground v.1.15,2013-03-12 19:10:00,
2013-03-12 12:20:00,52.7,47.4,30.15,WNW,296,2.0,3.0,82,0.00,,,0.00,Wunderground v.1.15,2013-03-12 19:20:00,
2013-03-12 12:30:00,52.8,46.8,30.15,SSW,194,3.0,3.0,80,0.00,,,0.00,Wunderground v.1.15,2013-03-12 19:30:00,
2013-03-12 12:40:00,53.0,46.7,30.15,SSE,155,3.0,4.0,79,0.00,,,0.00,Wunderground v.1.15,2013-03-12 19:40:00,
2013-03-12 12:50:00,53.2,46.9,30.15,SSW,198,2.0,2.0,79,0.00,,,0.00,Wunderground v.1.15,2013-03-12 19:50:00,
2013-03-12 13:00:00,53.3,46.3,30.15,NNW,345,4.0,4.0,77,0.00,,,0.00,Wunderground v.1.15,2013-03-12 20:00:00,
2013-03-12 13:10:00,53.4,46.4,30.15,WSW,238,3.0,3.0,77,0.00,,,0.00,Wunderground v.1.15,2013-03-12 20:10:00,
2013-03-12 13:20:00,53.4,46.0,30.15,SE,134,3.0,4.0,76,0.00,,,0.00,Wunderground v.1.15,2013-03-12 20:20:00,
2013-03-12 13:30:00,53.4,46.7,30.15,South,180,2.0,2.0,78,0.00,,,0.00,Wunderground v.1.15,2013-03-12 20:30:00,
2013-03-12 13:40:00,53.4,46.4,30.15,SSE,164,2.0,2.0,77,0.00,,,0.00,Wunderground v.1.15,2013-03-12 20:40:00,
2013-03-12 13:50:00,53.3,47.0,30.15,WSW,243,1.0,1.0,79,0.00,,,0.00,Wunderground v.1.15,2013-03-12 20:50:00,
2013-03-12 14:00:00,53.3,47.0,30.15,NW,317,2.0,2.0,79,0.00,,,0.00,Wunderground v.1.15,2013-03-12 21:00:00,
2013-03-12 14:10:00,53.2,46.9,30.15,South,190,2.0,2.0,79,0.00,,,0.00,Wunderground v.1.15,2013-03-12 21:10:00,
2013-03-12 14:20:00,53.3,47.0,30.15,South,169,3.0,4.0,79,0.00,,,0.00,Wunderground v.1.15,2013-03-12 21:20:00,
2013-03-12 14:30:00,53.3,47.3,30.14,SSW,194,1.0,1.0,80,0.00,,,0.00,Wunderground v.1.15,2013-03-12 21:30:00,
2013-03-12 14:40:00,53.3,47.3,30.14,SSW,197,1.0,3.0,80,0.00,,,0.00,Wunderground v.1.15,2013-03-12 21:40:00,
2013-03-12 14:50:00,53.3,47.6,30.14,South,177,2.0,2.0,81,0.00,,,0.00,Wunderground v.1.15,2013-03-12 21:50:00,
2013-03-12 15:00:00,53.2,47.5,30.14,SSW,204,1.0,1.0,81,0.00,,,0.00,Wunderground v.1.15,2013-03-12 22:00:00,
2013-03-12 15:10:00,53.1,47.7,30.14,South,186,2.0,2.0,82,0.00,,,0.00,Wunderground v.1.15,2013-03-12 22:10:00,
2013-03-12 15:20:00,53.1,48.1,30.14,South,187,1.0,1.0,83,0.00,,,0.00,Wunderground v.1.15,2013-03-12 22:20:00,
2013-03-12 15:30:00,53.0,48.0,30.14,South,179,1.0,2.0,83,0.00,,,0.01,Wunderground v.1.15,2013-03-12 22:30:00,
2013-03-12 15:40:00,52.9,48.2,30.14,South,177,1.0,1.0,84,0.00,,,0.01,Wunderground v.1.15,2013-03-12 22:40:00,
2013-03-12 15:50:00,52.9,48.2,30.14,SSW,194,0.0,0.0,84,0.00,,,0.01,Wunderground v.1.15,2013-03-12 22:50:00,
2013-03-12 16:00:00,52.9,48.5,30.14,SSW,207,2.0,2.0,85,0.00,,,0.01,Wunderground v.1.15,2013-03-12 23:00:00,
2013-03-12 16:10:00,52.8,48.7,30.15,SE,143,1.0,5.0,86,0.00,,,0.01,Wunderground v.1.15,2013-03-12 23:10:00,
2013-03-12 16:20:00,52.6,48.8,30.15,South,171,2.0,2.0,87,0.00,,,0.01,Wunderground v.1.15,2013-03-12 23:20:00,
2013-03-12 16:30:00,52.5,49.0,30.15,South,185,1.0,2.0,88,0.00,,,0.01,Wunderground v.1.15,2013-03-12 23:30:00,
2013-03-12 16:40:00,52.3,49.2,30.15,SSE,159,1.0,1.0,89,0.00,,,0.01,Wunderground v.1.15,2013-03-12 23:40:00,
2013-03-12 16:50:00,52.1,49.3,30.14,South,190,1.0,1.0,90,0.00,,,0.01,Wunderground v.1.15,2013-03-12 23:50:00,
2013-03-12 17:00:00,51.8,49.3,30.14,South,174,2.0,2.0,91,0.00,,,0.01,Wunderground v.1.15,2013-03-13 00:00:00,
2013-03-12 17:10:00,51.6,49.4,30.14,West,269,0.0,1.0,92,0.00,,,0.01,Wunderground v.1.15,2013-03-13 00:10:00,
2013-03-12 17:20:00,51.5,49.3,30.14,SE,137,1.0,1.0,92,0.00,,,0.01,Wunderground v.1.15,2013-03-13 00:20:00,
2013-03-12 17:30:00,51.4,49.4,30.13,SW,215,1.0,1.0,93,0.00,,,0.01,Wunderground v.1.15,2013-03-13 00:30:00,
2013-03-12 17:40:00,51.2,49.2,30.13,SSW,192,1.0,1.0,93,0.00,,,0.01,Wunderground v.1.15,2013-03-13 00:40:00,
2013-03-12 17:50:00,51.2,49.2,30.13,South,175,1.0,1.0,93,0.00,,,0.01,Wunderground v.1.15,2013-03-13 00:50:00,
2013-03-12 18:00:00,51.1,49.1,30.13,South,177,1.0,1.0,93,0.00,,,0.01,Wunderground v.1.15,2013-03-13 01:00:00,
2013-03-12 18:10:00,51.2,49.0,30.12,SSW,202,2.0,2.0,92,0.00,,,0.01,Wunderground v.1.15,2013-03-13 01:10:00,
2013-03-12 18:20:00,51.3,48.8,30.13,South,170,1.0,2.0,91,0.00,,,0.01,Wunderground v.1.15,2013-03-13 01:20:00,
2013-03-12 18:30:00,51.5,48.7,30.12,SSE,158,2.0,2.0,90,0.00,,,0.01,Wunderground v.1.15,2013-03-13 01:30:00,
2013-03-12 18:40:00,51.8,48.7,30.12,SW,220,1.0,2.0,89,0.00,,,0.01,Wunderground v.1.15,2013-03-13 01:40:00,
2013-03-12 18:50:00,52.0,48.6,30.12,SE,146,2.0,2.0,88,0.00,,,0.01,Wunderground v.1.15,2013-03-13 01:50:00,
2013-03-12 19:00:00,52.2,48.4,30.13,West,260,2.0,2.0,87,0.00,,,0.01,Wunderground v.1.15,2013-03-13 02:00:00,
2013-03-12 19:10:00,52.3,48.5,30.12,WNW,294,2.0,5.0,87,0.00,,,0.01,Wunderground v.1.15,2013-03-13 02:10:00,
2013-03-12 19:20:00,52.4,48.3,30.13,SSE,148,1.0,1.0,86,0.00,,,0.01,Wunderground v.1.15,2013-03-13 02:20:00,
2013-03-12 19:30:00,52.4,48.3,30.13,South,182,2.0,8.0,86,0.00,,,0.01,Wunderground v.1.15,2013-03-13 02:30:00,
2013-03-12 19:40:00,52.4,48.3,30.14,South,186,2.0,2.0,86,0.00,,,0.01,Wunderground v.1.15,2013-03-13 02:40:00,
2013-03-12 19:50:00,52.4,48.3,30.14,SSW,200,2.0,2.0,86,0.00,,,0.01,Wunderground v.1.15,2013-03-13 02:50:00,
2013-03-12 20:00:00,52.4,48.3,30.14,South,175,2.0,2.0,86,0.00,,,0.01,Wunderground v.1.15,2013-03-13 03:00:00,
2013-03-12 20:10:00,52.3,48.5,30.15,South,171,2.0,4.0,87,0.00,,,0.01,Wunderground v.1.15,2013-03-13 03:10:00,
2013-03-12 20:20:00,52.3,48.5,30.15,South,190,2.0,2.0,87,0.00,,,0.01,Wunderground v.1.15,2013-03-13 03:20:00,
2013-03-12 20:30:00,52.2,48.8,30.15,South,183,2.0,5.0,88,0.00,,,0.01,Wunderground v.1.15,2013-03-13 03:30:00,
2013-03-12 20:40:00,52.1,48.7,30.15,SW,222,3.0,4.0,88,0.00,,,0.01,Wunderground v.1.15,2013-03-13 03:40:00,
2013-03-12 20:50:00,52.0,48.6,30.16,SSE,166,2.0,2.0,88,0.00,,,0.01,Wunderground v.1.15,2013-03-13 03:50:00,
2013-03-12 21:00:00,51.9,48.5,30.16,WNW,292,2.0,2.0,88,0.00,,,0.01,Wunderground v.1.15,2013-03-13 04:00:00,
2013-03-12 21:10:00,51.8,48.4,30.16,NW,325,1.0,1.0,88,0.00,,,0.01,Wunderground v.1.15,2013-03-13 04:10:00,
2013-03-12 21:20:00,51.7,48.6,30.16,SE,125,3.0,3.0,89,0.00,,,0.01,Wunderground v.1.15,2013-03-13 04:20:00,
2013-03-12 21:30:00,51.7,48.6,30.16,SSW,196,2.0,2.0,89,0.00,,,0.01,Wunderground v.1.15,2013-03-13 04:30:00,
2013-03-12 21:40:00,51.6,48.5,30.16,East,86,2.0,2.0,89,0.00,,,0.01,Wunderground v.1.15,2013-03-13 04:40:00,
2013-03-12 21:50:00,51.5,48.4,30.17,SSE,152,2.0,6.0,89,0.00,,,0.01,Wunderground v.1.15,2013-03-13 04:50:00,
2013-03-12 22:00:00,51.4,48.6,30.16,SE,144,3.0,3.0,90,0.00,,,0.01,Wunderground v.1.15,2013-03-13 05:00:00,
2013-03-12 22:10:00,51.3,48.5,30.17,SW,220,3.0,3.0,90,0.00,,,0.01,Wunderground v.1.15,2013-03-13 05:10:00,
2013-03-12 22:20:00,51.3,48.5,30.16,South,191,2.0,2.0,90,0.00,,,0.01,Wunderground v.1.15,2013-03-13 05:20:00,
2013-03-12 22:30:00,51.2,48.4,30.16,NW,305,3.0,3.0,90,0.00,,,0.01,Wunderground v.1.15,2013-03-13 05:30:00,
2013-03-12 22:40:00,51.2,48.1,30.16,South,178,2.0,2.0,89,0.00,,,0.01,Wunderground v.1.15,2013-03-13 05:40:00,
2013-03-12 22:50:00,51.2,48.1,30.16,SSE,167,4.0,9.0,89,0.00,,,0.01,Wunderground v.1.15,2013-03-13 05:50:00,
2013-03-12 23:00:00,51.2,48.1,30.16,South,172,3.0,3.0,89,0.00,,,0.01,Wunderground v.1.15,2013-03-13 06:00:00,
2013-03-12 23:10:00,51.3,48.2,30.17,SSE,163,2.0,4.0,89,0.00,,,0.01,Wunderground v.1.15,2013-03-13 06:10:00,
2013-03-12 23:20:00,51.3,48.2,30.16,SE,134,2.0,2.0,89,0.00,,,0.01,Wunderground v.1.15,2013-03-13 06:20:00,
2013-03-12 23:30:00,51.3,48.2,30.16,SSE,163,2.0,2.0,89,0.00,,,0.01,Wunderground v.1.15,2013-03-13 06:30:00,
2013-03-12 23:40:00,51.3,47.9,30.16,SSW,202,3.0,3.0,88,0.00,,,0.01,Wunderground v.1.15,2013-03-13 06:40:00,
2013-03-12 23:50:00,51.4,48.0,30.16,West,269,2.0,2.0,88,0.00,,,0.01,Wunderground v.1.15,2013-03-13 06:50:00,